Location: Chrome
(40.5765°N, 74.2163°W)
Time: 01:45:47
(UTC+00:00)

Cosmos 2219 Rocket - Pass Details

Date: 06 December 2019
Orbit: 826 x 848 km, 71.0° (Epoch: 22 January)

Event Time Altitude Azimuth Distance (km) Brightness Sun altitude
Rises 22:08:05 0° 200° (SSW) 3,353 6.0 -7.3°
Reaches altitude 10° 22:10:30 10° 200° (SSW) 2,426 5.3 -7.8°
Maximum altitude 22:16:04 85° 113° (ESE) 841 2.2 -8.7°
Drops below altitude 10° 22:21:43 10° 24° (NNE) 2,456 4.2 -9.7°
Enters shadow 22:23:36 - 24° (NNE) 3,178 4.8 -10.1°
